TimeEST,TemperatureF,Dew PointF,Humidity,Sea Level PressureIn,VisibilityMPH,Wind Direction,Wind SpeedMPH,Gust SpeedMPH,PrecipitationIn,Events,Conditions,WindDirDegrees,DateUTC
12:12 AM,35.2,26.4,70,30.21,10.0,ENE,5.8,-,N/A,,Overcast,60,2012-11-05 05:12:00
12:33 AM,35.2,26.1,69,30.21,10.0,NE,5.8,-,N/A,,Overcast,50,2012-11-05 05:33:00
12:52 AM,35.2,26.2,70,30.22,10.0,NNE,4.6,-,N/A,,Overcast,30,2012-11-05 05:52:00
1:12 AM,34.9,25.9,70,30.22,10.0,NE,6.9,-,N/A,,Overcast,50,2012-11-05 06:12:00
1:33 AM,34.9,25.5,69,30.22,10.0,NE,5.8,-,N/A,,Overcast,40,2012-11-05 06:33:00
1:52 AM,34.7,25.0,68,30.22,10.0,North,3.5,-,N/A,,Overcast,360,2012-11-05 06:52:00
2:12 AM,34.7,25.3,69,30.22,10.0,Calm,Calm,-,N/A,,Overcast,0,2012-11-05 07:12:00
2:32 AM,34.7,25.7,70,30.22,10.0,Calm,Calm,-,N/A,,Overcast,0,2012-11-05 07:32:00
2:52 AM,34.3,25.9,71,30.22,10.0,Calm,Calm,-,N/A,,Overcast,0,2012-11-05 07:52:00
3:12 AM,34.3,25.7,71,30.22,10.0,Calm,Calm,-,N/A,,Overcast,0,2012-11-05 08:12:00
3:32 AM,34.7,25.5,69,30.22,10.0,Calm,Calm,-,N/A,,Overcast,0,2012-11-05 08:32:00
3:52 AM,34.7,25.9,70,30.22,10.0,Calm,Calm,-,N/A,,Overcast,0,2012-11-05 08:52:00
4:12 AM,34.7,24.8,67,30.22,10.0,Calm,Calm,-,N/A,,Overcast,0,2012-11-05 09:12:00
4:32 AM,34.0,27.1,76,30.22,10.0,NNE,3.5,-,N/A,,Overcast,20,2012-11-05 09:32:00
4:52 AM,34.0,28.2,79,30.22,10.0,NNE,3.5,-,N/A,,Overcast,30,2012-11-05 09:52:00
5:12 AM,34.0,28.0,79,30.23,10.0,NNE,4.6,-,N/A,,Overcast,30,2012-11-05 10:12:00
5:32 AM,33.8,27.9,79,30.23,10.0,NNE,5.8,-,N/A,,Overcast,20,2012-11-05 10:32:00
5:52 AM,33.8,27.9,79,30.23,10.0,NE,4.6,-,N/A,,Overcast,40,2012-11-05 10:52:00
6:12 AM,33.6,27.7,79,30.23,10.0,NE,4.6,-,N/A,,Overcast,40,2012-11-05 11:12:00
6:33 AM,33.3,27.5,79,30.23,10.0,NE,4.6,-,N/A,,Overcast,40,2012-11-05 11:33:00
7:12 AM,33.1,27.9,81,30.23,10.0,NNE,5.8,-,N/A,,Overcast,30,2012-11-05 12:12:00
7:33 AM,32.9,27.5,81,30.24,10.0,NE,5.8,-,N/A,,Overcast,50,2012-11-05 12:33:00
7:52 AM,32.9,27.5,81,30.24,10.0,NE,4.6,-,N/A,,Overcast,50,2012-11-05 12:52:00
8:12 AM,32.9,27.1,79,30.24,10.0,NE,6.9,-,N/A,,Overcast,40,2012-11-05 13:12:00
8:33 AM,32.9,27.0,79,30.25,10.0,NE,4.6,-,N/A,,Overcast,40,2012-11-05 13:33:00
8:52 AM,33.3,27.0,78,30.25,10.0,NE,5.8,-,N/A,,Overcast,50,2012-11-05 13:52:00
9:12 AM,33.3,26.6,77,30.26,10.0,NE,4.6,-,N/A,,Overcast,40,2012-11-05 14:12:00
9:32 AM,33.8,26.4,74,30.26,10.0,ENE,5.8,-,N/A,,Overcast,60,2012-11-05 14:32:00
9:52 AM,33.8,25.3,71,30.26,10.0,NE,6.9,-,N/A,,Overcast,50,2012-11-05 14:52:00
10:13 AM,33.8,24.6,69,30.26,10.0,NNE,5.8,-,N/A,,Overcast,30,2012-11-05 15:13:00
10:32 AM,34.0,23.7,66,30.26,10.0,ENE,6.9,-,N/A,,Overcast,60,2012-11-05 15:32:00
10:52 AM,34.0,22.8,64,30.26,10.0,NE,6.9,-,N/A,,Overcast,40,2012-11-05 15:52:00
11:13 AM,34.3,22.1,61,30.26,10.0,ENE,8.1,-,N/A,,Overcast,60,2012-11-05 16:13:00
11:32 AM,34.7,22.5,61,30.26,10.0,NE,4.6,-,N/A,,Overcast,50,2012-11-05 16:32:00
11:52 AM,34.7,21.9,60,30.26,10.0,NE,4.6,-,N/A,,Overcast,50,2012-11-05 16:52:00
12:13 PM,34.7,21.6,59,30.26,10.0,NNE,4.6,-,N/A,,Overcast,30,2012-11-05 17:13:00
12:32 PM,34.9,21.2,57,30.25,10.0,NNE,4.6,-,N/A,,Overcast,20,2012-11-05 17:32:00
12:52 PM,34.7,20.8,57,30.24,10.0,NE,3.5,-,N/A,,Overcast,40,2012-11-05 17:52:00
1:13 PM,34.9,21.2,57,30.23,10.0,ENE,5.8,-,N/A,,Overcast,70,2012-11-05 18:13:00
1:32 PM,35.1,21.0,57,30.22,10.0,ENE,8.1,-,N/A,,Overcast,70,2012-11-05 18:32:00
1:53 PM,35.1,21.0,57,30.22,10.0,ENE,6.9,-,N/A,,Mostly Cloudy,70,2012-11-05 18:53:00
2:13 PM,34.7,20.3,56,30.22,10.0,ENE,3.5,-,N/A,,Scattered Clouds,60,2012-11-05 19:13:00
2:32 PM,36.0,20.1,53,30.21,10.0,East,6.9,-,N/A,,Clear,90,2012-11-05 19:32:00
2:53 PM,36.5,20.3,52,30.20,10.0,West,4.6,-,N/A,,Clear,270,2012-11-05 19:53:00
3:12 PM,37.4,20.7,51,30.20,10.0,East,5.8,-,N/A,,Clear,100,2012-11-05 20:12:00
3:32 PM,37.4,20.3,50,30.20,10.0,ESE,6.9,-,N/A,,Clear,110,2012-11-05 20:32:00
3:52 PM,36.7,20.5,52,30.20,10.0,Calm,Calm,-,N/A,,Clear,0,2012-11-05 20:52:00
4:13 PM,37.4,20.3,50,30.20,10.0,East,6.9,-,N/A,,Scattered Clouds,90,2012-11-05 21:13:00
4:32 PM,37.8,20.1,49,30.19,10.0,East,3.5,-,N/A,,Scattered Clouds,100,2012-11-05 21:32:00
4:52 PM,37.0,20.5,51,30.19,10.0,East,8.1,-,N/A,,Mostly Cloudy,90,2012-11-05 21:52:00
5:13 PM,35.4,21.6,57,30.19,10.0,ENE,5.8,-,N/A,,Mostly Cloudy,70,2012-11-05 22:13:00
5:32 PM,34.7,21.7,59,30.19,10.0,ENE,4.6,-,N/A,,Overcast,60,2012-11-05 22:32:00
5:53 PM,32.2,22.1,66,30.19,10.0,Calm,Calm,-,N/A,,Overcast,0,2012-11-05 22:53:00
6:13 PM,30.7,22.5,71,30.19,10.0,Calm,Calm,-,N/A,,Scattered Clouds,0,2012-11-05 23:13:00
6:32 PM,30.2,23.2,75,30.20,10.0,Calm,Calm,-,N/A,,Clear,0,2012-11-05 23:32:00
6:53 PM,29.1,23.0,78,30.19,10.0,East,3.5,-,N/A,,Clear,90,2012-11-05 23:53:00
7:13 PM,28.6,22.6,78,30.20,10.0,Calm,Calm,-,N/A,,Clear,0,2012-11-06 00:13:00
7:32 PM,28.2,23.0,81,30.20,10.0,Calm,Calm,-,N/A,,Clear,0,2012-11-06 00:32:00
7:53 PM,27.7,22.8,82,30.19,10.0,East,5.8,-,N/A,,Clear,80,2012-11-06 00:53:00
8:12 PM,27.3,22.6,83,30.19,10.0,Calm,Calm,-,N/A,,Clear,0,2012-11-06 01:12:00
8:32 PM,26.2,22.8,87,30.19,10.0,Calm,Calm,-,N/A,,Clear,0,2012-11-06 01:32:00
8:53 PM,26.8,22.6,84,30.19,10.0,Calm,Calm,-,N/A,,Clear,0,2012-11-06 01:53:00
9:12 PM,26.1,22.8,88,30.18,10.0,NW,3.5,-,N/A,,Clear,320,2012-11-06 02:12:00
9:33 PM,25.0,22.3,89,30.18,10.0,Calm,Calm,-,N/A,,Clear,0,2012-11-06 02:33:00
9:53 PM,25.3,22.5,89,30.18,10.0,Calm,Calm,-,N/A,,Clear,0,2012-11-06 02:53:00
10:13 PM,24.6,21.9,89,30.17,10.0,Calm,Calm,-,N/A,,Clear,0,2012-11-06 03:13:00
10:33 PM,24.8,21.9,89,30.17,10.0,NW,4.6,-,N/A,,Clear,310,2012-11-06 03:33:00
10:52 PM,24.1,21.7,91,30.17,10.0,Calm,Calm,-,N/A,,Clear,0,2012-11-06 03:52:00
11:12 PM,23.9,21.9,92,30.16,10.0,Calm,Calm,-,N/A,,Clear,0,2012-11-06 04:12:00
11:32 PM,23.9,22.1,93,30.15,10.0,Calm,Calm,-,N/A,,Scattered Clouds,0,2012-11-06 04:32:00
11:52 PM,24.1,22.1,92,30.15,10.0,NNE,3.5,-,N/A,,Mostly Cloudy,30,2012-11-06 04:52:00